Regional Weather Roundup
Issued by NWS State College, PA

Home | Current Version | Previous Version | Graphics & Text | Print | Product List | Glossary Off
Versions: 1 2 3 4 5 6 7 8 9 10 11 12 13 14 15 16 17 18 19 20 21 22 23 24 25 26 27 28 29 30 31 32 33 34 35 36 37 38 39 40 41 42 43 44 45 46 47 48 49 50

000
ASUS41 KCTP 031103
RWRCTP

REGIONAL WEATHER ROUNDUP
NATIONAL WEATHER SERVICE STATE COLLEGE PA
700 AM EDT SUN MAY 03 2015

Note: "fair" indicates few or no clouds below 12,000 feet with no
significant weather and/or obstructions to visibility.

* = STATION THAT DOES NOT REPORT PRECIPITATION /E.G. RAIN...SNOW...ETC/
    THUNDER OR FOG.

PAZ002>004-007>009-013>016-020>023-029>032-031200-
WESTERN PENNSYLVANIA

CITY           SKY/WX    TMP DP  RH WIND       PRES   REMARKS
ERIE           CLOUDY    56  37  49 S7        30.05R
MEADVILLE      MOCLDY    53  35  50 S5        30.08R
FRANKLIN*      CLEAR     45  36  70 CALM      30.10R
NEW CASTLE     FAIR      42  42 100 CALM      30.10R
BEAVER COUNTY  NOT AVBL
BUTLER*        CLEAR     45  37  76 CALM      30.11R
PITTSBURGH INT PTCLDY    49  41  74 S3        30.10R
PITTSBURGH     PTCLDY    51  38  60 S9        30.10R
INDIANA*       PTCLDY    45  39  81 CALM      30.14R
LATROBE        CLEAR     45  41  87 S3        30.13R
WASHINGTON CO* CLEAR     43  39  87 CALM      30.13R
$$

PAZ004>006-010>012-017>019-024>028-033>037-041-042-045-046-049>053-031200-
CENTRAL PENNSYLVANIA

CITY           SKY/WX    TMP DP  RH WIND       PRES   REMARKS
BRADFORD       CLEAR     36  30  79 CALM      30.10R
DUBOIS         PTCLDY    50  32  50 CALM      30.09R
CLEARFIELD     CLEAR     43  34  70 CALM      30.11R
JOHNSTOWN      CLEAR     52  35  52 SW8       30.11R
ALTOONA        CLEAR     48  34  58 SW5       30.11R
STATE COLLEGE  CLEAR     48  34  57 S6        30.10R
WILLIAMSPORT   CLEAR     45  39  79 CALM      30.09R
SELINSGROVE    CLEAR     42  41  96 CALM      30.10R
FT INDIANTOWN  CLEAR     46  39  79 CALM      30.08R
CAPITAL CITY   CLEAR     47  42  83 SW5       30.08R
HARRISBURG     PTCLDY    49  43  80 N3        30.08R
YORK           CLEAR     45  40  82 CALM      30.08R
$$

PAZ038>040-043-044-047-048-054-055-060>062-067>071-031200-
EASTERN PENNSYLVANIA

CITY           SKY/WX    TMP DP  RH WIND       PRES   REMARKS
SCRANTON       SUNNY     46  32  58 E6        30.08R
MOUNT POCONO   MOSUNNY   43  33  68 NW5       30.08R
ALLENTOWN      MOSUNNY   45  41  86 CALM      30.08R
QUAKERTOWN*    MOSUNNY   45  41  87 CALM      30.08R
READING        PTCLDY    47  43  86 CALM      30.08R
LANCASTER      PTCLDY    49  45  86 CALM      30.07R
COATESVILLE    MOSUNNY   48  48 100 CALM      30.08R
POTTSTOWN      MOSUNNY   48  46  93 CALM      30.09R
BLUE BELL      SUNNY     46  45  93 CALM      30.08R
DOYLESTOWN     SUNNY     43  32  65 CALM      30.07R
WILLOW GROVE   NOT AVBL
NORTH PHILA    SUNNY     49  39  68 CALM      30.10R
PHILADELPHIA   PTSUNNY   51  43  74 E5        30.09R
$$



USA.gov is the U.S. government's official web portal to all federal, state and local government web resources and services.